Regional Weather Roundup
Issued by NWS

Home | Current Version | Previous Version | Text Only | Print | Product List | Glossary Off
Versions: 1 2 3 4 5 6 7 8 9 10 11 12 13 14 15 16 17 18 19 20 21 22 23 24 25 26 27 28 29 30 31 32 33 34 35 36 37 38 39 40 41 42 43 44 45 46 47 48 49 50

000
ASUS43 KOAX 201010
RWRNE

WEATHER ROUNDUP FOR NEBRASKA
NATIONAL WEATHER SERVICE OMAHA NE
500 AM CDT FRI APR 20 2018

NOTES: SATELLITE DATA IS BEING USED TO AUGMENT CLOUD COVER ABOVE
       12000 FEET.
       "FAIR" INDICATES FEW OR NO CLOUDS BELOW 12,000 FEET WITH NO
       SIGNIFICANT WEATHER AND/OR OBSTRUCTIONS TO VISIBILITY.


NEZ001>004-019>022-054>056-201100-
NEBRASKA PANHANDLE

CITY           SKY/WX    TMP DP  RH WIND       PRES   REMARKS
SCOTTSBLUFF    FAIR      40  28  62 E18       30.07R WCI  31
ALLIANCE       FAIR      41  28  60 SE26G36   30.09F
CHADRON        FAIR      44  27  51 SE12G25   30.10F
GORDON         FAIR      40  28  63 SE10      30.15F WCI  33
KIMBALL        FAIR      37  26  62 SE18G25   30.03S WCI  27
SIDNEY         FAIR      38  26  62 SE23G32   30.07S WCI  27
$$

NEZ057>060-069>072-079>082-201100-
SOUTHWEST NEBRASKA

CITY           SKY/WX    TMP DP  RH WIND       PRES   REMARKS
NORTH PLATTE   FAIR      39  29  67 SE10      30.23F WCI  32
IMPERIAL       FAIR      38  28  67 E16       30.16F WCI  29
LEXINGTON      FAIR      39  29  65 SE7       30.28S WCI  34
MCCOOK         FAIR      41  27  57 SE10      30.22F
OGALLALA       FAIR      43  28  54 SE16G22   30.16F
$$

NEZ005>010-023>029-035>040-094-201100-
NORTH CENTRAL NEBRASKA

CITY           SKY/WX    TMP DP  RH WIND       PRES   REMARKS
VALENTINE      FAIR      36  27  69 NE8       30.24F WCI  30
AINSWORTH      FAIR      37  29  73 SE9       30.26F WCI  30
BROKEN BOW     FAIR      36  27  69 SE8       30.27F WCI  30
O`NEILL        FAIR      38  32  79 SE8       30.33S WCI  32
ORD            FAIR      34  28  79 CALM      30.31R
THEDFORD       FAIR      40  29  66 SE9       30.25F WCI  33
$$

NEZ041-046>049-061>064-073>077-083>087-201100-
SOUTH CENTRAL NEBRASKA

CITY           SKY/WX    TMP DP  RH WIND       PRES   REMARKS
GRAND ISLAND   CLOUDY    39  27  62 SE9       30.33S WCI  33
AURORA         CLOUDY    33  26  76 SE6       30.34S WCI  27
HASTINGS       CLOUDY    38  26  62 SE6       30.33R WCI  33
HEBRON         PTCLDY    37  28  72 SE5       30.36S WCI  33
HOLDREGE       CLOUDY    37  29  71 SE9       30.28F WCI  31
KEARNEY        PTCLDY    37  28  70 SE7       30.31S WCI  32
YORK             N/A     37  28  70 SE9       30.35S WCI  31
$$

NEZ011>018-030>034-042>045-201100-
NORTHEAST NEBRASKA

CITY           SKY/WX    TMP DP  RH WIND       PRES   REMARKS
NORFOLK        CLOUDY    32  29  88 SE7       30.36R WCI  26
ALBION         MOCLDY    35  30  82 SE5       30.35S WCI  31
BLAIR          CLEAR     35  27  72 E8        30.39F WCI  29
COLUMBUS       CLOUDY    32  28  85 E7        30.38R WCI  26
FREMONT        CLOUDY    37  28  70 E6        30.40S WCI  33
TEKAMAH        PTCLDY    28  26  92 CALM      30.42S
WAYNE          CLOUDY    31  30  96 CALM      30.38F
$$

NEZ050>053-065>068-078-088>093-201100-
SOUTHEAST NEBRASKA

CITY           SKY/WX    TMP DP  RH WIND       PRES   REMARKS
LINCOLN        CLOUDY    36  27  69 CALM      30.40R
OMAHA EPPLEY   PTCLDY    37  26  64 SE6       30.42F WCI  32
BEATRICE       PTCLDY    40  30  67 SE5       30.39S
FALLS CITY     CLOUDY    34  26  72 E5        30.40F WCI  30
NEBRASKA CITY  PTCLDY    36  28  73 E5        30.40F WCI  32
PLATTSMOUTH    CLOUDY    37  27  69 E8        30.40F HAZE    WCI  30
$$

NEZ044-045-051>053-067-201100-
OMAHA AREA

CITY           SKY/WX    TMP DP  RH WIND       PRES   REMARKS
OMAHA EPPLEY   PTCLDY    37  26  64 SE6       30.42F WCI  32
BLAIR          CLEAR     35  27  72 E8        30.39F WCI  29
FREMONT        CLOUDY    37  28  70 E6        30.40S WCI  33
MILLARD        CLOUDY    39  28  64 CALM      30.41F
OFFUTT AFB     CLOUDY    30  25  80 E7        30.40F WCI  24
PLATTSMOUTH    CLOUDY    37  27  69 E8        30.40F HAZE    WCI  30
WAHOO          FAIR      34  24  67 SE3       30.40R
$$



USA.gov is the U.S. government's official web portal to all federal, state and local government web resources and services.